2023-001AF (55038 NORAD) Tracking and Keplerian Element Data

This shows tracking and keplerian element data for the satellite.

Feedback or suggestion? Click here.




ElementValue
Catalog55038
Name2023-001AF
Epoch Orbit171
Epoch Day13.91003634
Epoch Year2023
RAAN75.8791
Inclination97.507
Eccentricity0.0017239
Argument of Perigee177.6509
Mean Anonmoly182.4806
Mean Motion15.13800502
Decay Rate0.00017752
L11 55038U 23001AF 23013.91003634 .00017752 00000+0 98183-3 0 9995
L22 55038 97.5070 75.8791 0017239 177.6509 182.4806 15.13800502 1718



Live tracking and technical data element details for 2023-001AF (NORAD 55038). 2023-001AF can be tracked NOW for your location showing map with azimuth and elevation plus other details from your city location.







IsCatalogInMostPopularTable: catalog: 55038, numindb: 3
Update: records affected: 1



GetName: 55038 2023-001AF

Hit Count: updated at: Tue, 07 Feb 2023 14:23:00 GMT